User: anonymous   Login
Location: Unspecified
(0.0000°N, 0.0000°E)
Time: 20:08:05
(UTC+00:00)
Language:

STARLINK-11727 [DTC] - Orbit

View from above orbital plane
View from above orbital plane
View from above satellite
View from above satellite

Ground track
Ground track

The orbit is defined by the following mean orbital elements,

1 64123U          26145.61338841 +.00000000 +00000-0 +14172-2 0 00008
2 64123  43.0031 230.4992 0002253 270.5135  89.5475 15.70869725    01
Epoch (UTC): 25 May 2026 14:43:16
Eccentricity: 0.0002253
inclination: 43.0031°
perigee height: 355 km
apogee height: 358 km
right ascension of ascending node: 230.4992°
argument of perigee: 270.5135°
revolutions per day: 15.70869725
mean anomaly at epoch: 89.5475°

The dashed part of the orbit path shows where the satellite is in the earth's shadow,  

DLR